Home   Weather   Coburg   Past weeks

Flag for Germany Past Weather in Coburg, Bavaria, Germany — Yesterday and Last 2 Weeks

Now
59 °F

Passing clouds.


Feels Like: 58 °F
Forecast: 48 / 77 °F
Wind: 8 mph from Northeast

Location: Hof Airport

Current Time: Aug 30, 2016 at 11:23:07 AM

Latest Report: Aug 30, 2016 at 10:50 AM


Visibility: N/A

Pressure: 30.33 "Hg

Humidity: 68%

Dew Point: 48 °F

Location of CoburgLocation

Past Weather in Coburg — Graph

°F

Coburg Temperature Yesterday

Maximum temperature yesterday: 75 °F (at 3:20 PM)
Minimum temperature yesterday: 61 °F (at 6:50 AM)
Average temperature yesterday: 69 °F

High & Low Weather Summary for the Past Weeks

 TemperatureHumidityPressure
High88 °F (Aug 27, 3:50 PM)94% (Aug 16, 6:20 AM)30.39 "Hg (Aug 16, 6:20 AM)
Low46 °F (Aug 18, 6:50 AM)24% (Aug 27, 4:20 PM)29.83 "Hg (Aug 18, 2:50 PM)
Average69 °F52%30.12 "Hg
* Reported Aug 15 9:20 AM — Aug 30 9:50 AM, Coburg, Weather by CustomWeather, © 2016

Note: Actual official high and low records may vary slightly from our data, if they occured in-between our weather recording intervals... More about our weather records

Advertising

Coburg Weather History for the Previous 24 Hours

Scroll right to see more
 ConditionsComfort  
Time TempWeatherWind HumidityBarometerVisibility
9:50 AM
Tue, Aug 30
55 °FPartly sunny.7 mph77%30.33 "HgN/A
9:20 AM55 °FPartly sunny.6 mph77%30.30 "HgN/A
8:50 AM54 °FOvercast.7 mph82%30.30 "HgN/A
8:20 AM54 °FMostly cloudy.7 mph88%30.30 "HgN/A
7:50 AM54 °FOvercast.7 mph88%30.30 "HgN/A
7:20 AM54 °FOvercast.7 mph88%30.27 "HgN/A
7:50 PM
Mon, Aug 29
66 °FPassing clouds.7 mph60%30.15 "HgN/A
7:20 PM66 °FPassing clouds.8 mph60%30.12 "HgN/A
6:50 PM70 °FSunny.7 mph46%30.12 "Hg10 mi
6:20 PM70 °FPassing clouds.8 mph46%30.12 "HgN/A
5:50 PM70 °FPassing clouds.7 mph50%30.12 "HgN/A
5:20 PM72 °FPassing clouds.9 mph44%30.09 "HgN/A
4:50 PM72 °FPassing clouds.9 mph41%30.09 "HgN/A
4:20 PM73 °FPassing clouds.10 mph38%30.09 "HgN/A
3:50 PM73 °FPassing clouds.10 mph38%30.09 "HgN/A
3:20 PM75 °FPassing clouds.12 mph39%30.09 "HgN/A
2:50 PM72 °FScattered clouds.12 mph47%30.09 "HgN/A
2:20 PM72 °FPassing clouds.10 mph44%30.09 "HgN/A
1:50 PM73 °FScattered clouds.10 mph50%30.09 "HgN/A
1:20 PM72 °FScattered clouds.12 mph50%30.09 "HgN/A
12:50 PM72 °FScattered clouds.6 mph50%30.09 "HgN/A
12:20 PM70 °FBroken clouds.8 mph57%30.09 "HgN/A
11:50 AM70 °FScattered clouds.7 mph57%30.09 "HgN/A
11:20 AM70 °FScattered clouds.6 mph57%30.09 "HgN/A
Weather by CustomWeather, © 2016

See weather overviewHow to use our weather pages